Location: Newark
(54.6833°N, 25.2833°E)
Time: 04:40:15
(UTC+00:00)

Vanguard 2 - All Passes

Search period start: 22 November 2019 00:00
Search period end: 02 December 2019 00:00
Orbit: 554 x 2937 km, 32.9° (Epoch: 21 November)

Date Brightness Start Highest point End Pass type
(mag) Time Alt. Az. Time Alt. Az. Time Alt. Az.
22 Nov - 05:13:06 10° S 05:17:13 13° SSE 05:20:45 10° SE visible
22 Nov - 07:20:36 10° SW 07:24:58 14° S 07:28:32 10° SSE daylight
23 Nov - 05:28:50 10° SSW 05:34:44 15° S 05:39:30 10° SE daylight
23 Nov - 07:37:51 10° SW 07:42:24 14° SSW 07:46:07 10° SSE daylight
24 Nov - 03:39:58 10° S 03:44:00 12° SSE 03:47:36 10° SE visible
24 Nov - 05:45:17 10° SSW 05:52:15 17° S 05:57:39 10° SE daylight
24 Nov - 07:55:24 10° SW 07:59:48 14° SSW 08:03:25 10° SSE daylight
25 Nov - 03:54:37 10° S 04:01:29 15° SSE 04:07:10 10° SE visible
25 Nov - 06:02:09 10° SW 06:09:44 19° S 06:15:29 10° SE daylight
25 Nov - 08:13:18 10° SW 08:17:08 13° SSW 08:20:21 10° S daylight
26 Nov - 04:10:26 10° SSW 04:18:58 18° SSE 04:25:43 10° SE visible
26 Nov - 06:19:17 10° SW 06:27:12 20° S 06:33:06 10° SE daylight
26 Nov - 08:31:45 10° SW 08:34:23 11° SSW 08:36:44 10° SSW daylight
27 Nov - 02:21:53 10° S 02:27:51 13° SSE 02:33:09 10° SE visible
27 Nov - 04:26:50 10° SSW 04:36:28 21° S 04:43:50 10° SE visible
27 Nov - 06:36:41 10° SW 06:44:36 20° SSW 06:50:32 10° SSE daylight
28 Nov - 02:36:34 10° S 02:45:14 17° SSE 02:52:33 10° ESE visible
28 Nov - 04:43:36 10° SW 04:53:57 23° S 05:01:41 10° SE visible
28 Nov - 06:54:17 10° WSW 07:01:58 19° SSW 07:07:46 10° SSE daylight
29 Nov - 02:52:17 10° SSW 03:02:39 20° SSE 03:11:07 10° ESE visible
29 Nov - 05:00:39 10° SW 05:11:24 25° S 05:19:20 10° SE visible
29 Nov - 07:12:08 10° WSW 07:19:15 18° SSW 07:24:45 10° SSE daylight
30 Nov - 01:04:45 10° SSE 01:11:17 13° SE 01:17:18 10° ESE visible
30 Nov - 03:08:33 10° SSW 03:20:05 24° SSE 03:29:16 10° ESE visible
30 Nov - 05:17:56 10° SW 05:28:50 25° S 05:36:51 10° SE visible
30 Nov - 07:30:16 10° WSW 07:36:27 16° SSW 07:41:25 10° S daylight
01 Dec - 01:19:08 10° S 01:28:33 17° SSE 01:36:56 10° ESE visible
01 Dec - 03:25:12 10° SW 03:37:32 26° S 03:47:10 10° ESE visible
01 Dec - 05:35:23 10° WSW 05:46:12 25° SSW 05:54:12 10° SE visible
01 Dec - 07:48:54 10° WSW 07:53:34 13° SW 07:57:32 10° SSW daylight
